Voltar ao catálogo

STARLINK-11414

AtivoComunicaçõesVLEO
NORAD 61948·PAYLOAD·🇺🇸 United States

Lançado Nov 14, 2024 de Vandenberg Space Force Base

Loading…

Próximas Passagens (próximas 24 horas)

TLE

AtualizadoSource: CelesTrak SupGP

Época: Sep 14, 2026, 21:08 UTC

1 61948C 24209K   26257.88104167 -.00267340  00000+0 -22028-2 0  2578
2 61948  53.1571 158.4460 0001089  94.7877 309.5394 15.69836747    10

Acompanhe STARLINK-11414 em tempo real com AllMySat

Download on the App Store